I2HLY-4 Weather Reports


time (UTC)temp
C
wind
direction
speed
KPH
gust
KPH
rain 1hr
cm
rain 24hr
cm
rain mn
cm
humidity
%
barometer
mb
20260503071726 14 230 1.6 3.2 0.00 0.00 0.00 56 1021.3
20260503070225 13 137 0.0 0.0 0.00 0.00 0.00 60 1021.4
20260503060212 10 83 0.0 0.0 0.00 0.00 0.00 67 1021.3
20260503054716 9 81 1.6 4.8 0.00 0.00 0.00 68 1021.2
20260503053217 8 84 3.2 6.4 0.00 0.00 0.00 69 1021.2
20260503051721 8 89 1.6 3.2 0.00 0.00 0.00 68 1021.2
20260503050222 8 76 3.2 4.8 0.00 0.00 0.00 68 1021.1
20260503044723 8 76 3.2 4.8 0.00 0.00 0.00 67 1021.3
20260503043227 8 100 3.2 8.0 0.00 0.00 0.00 66 1021.1
20260503041728 8 106 3.2 4.8 0.00 0.00 0.00 65 1021.3
20260503040213 8 85 4.8 9.7 0.00 0.00 0.00 63 1021.1
20260503034715 8 81 3.2 9.7 0.00 0.00 0.00 66 1021.2
20260503033216 8 81 3.2 8.0 0.00 0.00 0.00 66 1021.2
20260503031720 8 92 4.8 6.4 0.00 0.00 0.00 68 1021.2
20260503030220 8 87 3.2 6.4 0.00 0.00 0.00 71 1021.4
20260503024720 8 80 3.2 4.8 0.00 0.00 0.00 70 1021.5
20260503023226 9 60 3.2 6.4 0.00 0.00 0.00 70 1021.5
20260503021729 9 92 3.2 8.0 0.00 0.00 0.00 72 1021.5
20260503020212 9 51 0.0 9.7 0.00 0.00 0.00 72 1021.7
20260503014713 10 76 3.2 9.7 0.00 0.00 0.00 72 1021.8
20260503013216 10 82 4.8 9.7 0.00 0.00 0.00 71 1021.9
20260503011716 10 115 4.8 11.3 0.00 0.00 0.00 71 1021.9
20260503010213 10 87 6.4 9.7 0.00 0.00 0.00 71 1022.0
20260503004716 9 79 4.8 8.0 0.00 0.00 0.00 73 1022.3
20260503003226 9 71 6.4 9.7 0.00 0.00 0.00 73 1022.6
20260503001728 9 71 6.4 8.0 0.00 0.00 0.00 72 1022.7
20260502234728 10 77 4.8 8.0 0.00 0.00 0.00 70 1023.0
20260502233227 9 84 3.2 6.4 0.00 0.00 0.00 72 1023.0
20260502231727 10 71 4.8 8.0 0.00 0.00 0.00 68 1023.3
20260502230222 10 63 4.8 9.7 0.00 0.00 0.00 70 1023.4
20260502224723 10 65 4.8 8.0 0.00 0.00 0.00 69 1023.3
20260502223227 10 67 4.8 12.9 0.00 0.00 0.00 68 1023.4
20260502221727 9 67 6.4 9.7 0.00 0.00 0.00 69 1023.4
20260502220211 10 72 6.4 9.7 0.00 0.00 0.00 71 1023.5
20260502214713 10 71 3.2 6.4 0.00 0.00 0.00 68 1023.5
20260502213229 10 104 4.8 6.4 0.00 0.00 0.00 68 1023.4
20260502211713 10 65 4.8 8.0 0.00 0.00 0.00 65 1023.4
20260502210223 10 66 4.8 12.9 0.00 0.00 0.00 66 1023.5
20260502203221 10 67 8.0 9.7 0.00 0.00 0.00 71 1023.7
20260502201716 10 69 6.4 8.0 0.00 0.00 0.00 70 1023.8
20260502200219 10 54 8.0 8.0 0.00 0.00 0.00 70 1023.7
20260502193228 10 69 4.8 8.0 0.00 0.00 0.00 70 1023.5
20260502191725 11 84 4.8 6.4 0.00 0.00 0.00 69 1023.5
20260502181723 13 246 0.0 1.6 0.00 0.00 0.00 61 1023.3
20260502180215 14 332 0.0 1.6 0.00 0.00 0.00 60 1023.3
20260502170217 17 237 6.4 12.9 0.00 0.00 0.00 49 1023.1
20260502163228 17 138 8.0 12.9 0.00 0.00 0.00 48 1023.2
20260502160211 17 212 6.4 12.9 0.00 0.00 0.00 48 1023.5
20260502151728 17 239 6.4 14.5 0.00 0.00 0.00 50 1023.8
20260502150221 17 284 6.4 17.7 0.00 0.00 0.00 50 1023.7
20260502123223 16 229 6.4 14.5 0.00 0.00 0.00 52 1025.4
20260502121717 16 187 6.4 17.7 0.00 0.00 0.00 53 1025.5
20260502120229 16 275 4.8 16.1 0.00 0.00 0.00 53 1025.6
20260502113214 16 181 4.8 16.1 0.00 0.00 0.00 54 1026.0
20260502111711 16 219 4.8 12.9 0.00 0.00 0.00 54 1026.1
20260502110215 16 229 6.4 14.5 0.00 0.00 0.00 53 1026.3
20260502104715 16 205 6.4 14.5 0.00 0.00 0.00 53 1026.6
20260502103216 15 222 6.4 12.9 0.00 0.00 0.00 53 1026.7
20260502101716 15 217 4.8 14.5 0.00 0.00 0.00 53 1026.7
20260502100214 15 221 6.4 14.5 0.00 0.00 0.00 54 1026.8
20260502090219 13 225 4.8 12.9 0.00 0.00 0.00 57 1027.3